Flag for Puerto Rico Weather past 2 weeks in Caguas, Puerto Rico

Now
81 °F

Scattered clouds.


Feels Like: 84 °F
Forecast: 71 / 82 °F
Wind: 17 mph from Northeast

Location: Luis Munoz Marin

Current Time: Feb 1, 2015 at 2:40:34 PM

Latest Report: Feb 1, 2015 at 1:56 PM


Visibility: 10 mi

Pressure: 30.07 "Hg

Humidity: 65%

Dew point: 68 °F

Location of CaguasLocation

Historic Weather in Caguas — Graph

°F

Caguas temperature yesterday

Maximum temperature yesterday: 83 °F (at 1:56 PM)
Minimum temperature yesterday: 73 °F (at 5:56 AM)
Average temperature yesterday: 78 °F

Past Weeks' High & Low Weather Summary

 TemperatureHumidityPressure
High88 °F (Jan 27, 2:56 PM)100% (Jan 17, 11:56 PM)30.13 "Hg (Jan 17, 11:56 PM)
Low72 °F (Jan 25, 6:56 AM)51% (Jan 28, 12:56 PM)29.93 "Hg (Jan 21, 3:56 PM)
Average78 °F80%30.00 "Hg
* Reported Jan 17 12:56 PM — Feb 1 12:56 PM, Caguas, Weather by CustomWeather, © 2014

Note: Actual official high and low records may vary slightly from our data, if they occured in-between our weather recording intervals... More about our weather records

Advertising

Caguas weather history for previous 24 hours

 ConditionsComfort  
Time TempWeatherWind HumidityBarometerVisibility
12:56 PM
Feb 1
82 °FBroken clouds.17 mph63%30.09 "Hg10 mi
11:56 AM81 °FBroken clouds.15 mph69%30.11 "Hg10 mi
10:56 AM81 °FBroken clouds.15 mph65%30.13 "Hg10 mi
9:56 AM80 °FBroken clouds.14 mph67%30.13 "Hg10 mi
8:56 AM79 °FBroken clouds.15 mph69%30.11 "Hg10 mi
7:56 AM78 °FPartly cloudy.15 mph71%30.09 "Hg10 mi
6:56 AM77 °FPartly cloudy.13 mph77%30.06 "Hg10 mi
5:56 AM77 °FPassing clouds.12 mph77%30.05 "Hg10 mi
4:56 AM77 °FPassing clouds.12 mph79%30.03 "Hg10 mi
3:56 AM77 °FPassing clouds.12 mph82%30.03 "Hg10 mi
2:56 AM77 °FPassing clouds.16 mph85%30.02 "Hg10 mi
1:56 AM76 °FPassing clouds.5 mph88%30.03 "Hg10 mi
12:56 AM76 °FLight rain. Passing clouds.No wind88%30.05 "Hg10 mi
11:56 PM
Jan 31
77 °FPassing clouds.6 mph82%30.06 "Hg10 mi
10:56 PM77 °FPassing clouds.8 mph82%30.06 "Hg10 mi
9:56 PM77 °FPassing clouds.7 mph85%30.06 "Hg10 mi
8:56 PM78 °FPassing clouds.15 mph79%30.05 "Hg10 mi
7:56 PM78 °FPassing clouds.8 mph79%30.03 "Hg10 mi
6:56 PM77 °FScattered clouds.8 mph82%30.01 "Hg10 mi
5:56 PM79 °FScattered clouds.13 mph74%29.99 "Hg10 mi
4:56 PM81 °FScattered clouds.15 mph72%29.97 "Hg10 mi
3:56 PM82 °FScattered clouds.13 mph70%29.97 "Hg10 mi
2:56 PM82 °FScattered clouds.12 mph72%29.97 "Hg10 mi
Weather by CustomWeather, © 2014

See weather overviewHow to use our weather pages